Time,TemperatureF,DewpointF,PressureIn,WindDirection,WindDirectionDegrees,WindSpeedMPH,WindSpeedGustMPH,Humidity,HourlyPrecipIn,Conditions,Clouds,dailyrainin,SoftwareType,DateUTC
2013-09-29 00:04:00,82.7,78.0,29.87,SE,127,3.0,9.0,85,0.00,,,0.00,weatherlink.com 1.10,2013-09-29 04:04:00,
2013-09-29 00:19:00,82.7,78.0,29.86,ESE,113,4.0,9.0,85,0.00,,,0.00,weatherlink.com 1.10,2013-09-29 04:19:00,
2013-09-29 00:34:00,82.7,78.0,29.86,ESE,103,8.0,10.0,85,0.00,,,0.00,weatherlink.com 1.10,2013-09-29 04:34:00,
2013-09-29 00:49:00,82.8,78.0,29.85,ESE,123,5.0,9.0,86,0.00,,,0.00,weatherlink.com 1.10,2013-09-29 04:49:00,
2013-09-29 01:04:00,82.8,78.0,29.85,ESE,105,5.0,12.0,86,0.00,,,0.00,weatherlink.com 1.10,2013-09-29 05:04:00,
2013-09-29 01:19:00,82.8,78.0,29.84,ESE,108,3.0,10.0,86,0.00,,,0.00,weatherlink.com 1.10,2013-09-29 05:19:00,
2013-09-29 01:34:00,82.7,78.0,29.84,SE,130,4.0,10.0,86,0.00,,,0.00,weatherlink.com 1.10,2013-09-29 05:34:00,
2013-09-29 01:49:00,82.7,78.0,29.84,ESE,115,3.0,10.0,86,0.00,,,0.00,weatherlink.com 1.10,2013-09-29 05:49:00,
2013-09-29 02:04:00,82.7,78.0,29.83,ESE,109,5.0,12.0,86,0.00,,,0.00,weatherlink.com 1.10,2013-09-29 06:04:00,
2013-09-29 02:19:00,82.8,78.0,29.82,SE,125,3.0,10.0,86,0.00,,,0.00,weatherlink.com 1.10,2013-09-29 06:19:00,
2013-09-29 02:34:00,82.7,78.0,29.82,ESE,119,5.0,10.0,86,0.00,,,0.00,weatherlink.com 1.10,2013-09-29 06:34:00,
2013-09-29 02:49:00,82.6,78.0,29.82,SE,139,4.0,10.0,86,0.00,,,0.00,weatherlink.com 1.10,2013-09-29 06:49:00,
2013-09-29 03:04:00,82.6,78.0,29.82,ESE,113,2.0,10.0,86,0.00,,,0.00,weatherlink.com 1.10,2013-09-29 07:04:00,
2013-09-29 03:19:00,82.6,78.0,29.82,ESE,107,5.0,11.0,86,0.00,,,0.00,weatherlink.com 1.10,2013-09-29 07:19:00,
2013-09-29 03:34:00,82.6,78.0,29.82,SE,128,4.0,11.0,86,0.00,,,0.00,weatherlink.com 1.10,2013-09-29 07:34:00,
2013-09-29 03:49:00,82.6,78.0,29.82,ESE,119,5.0,9.0,86,0.00,,,0.00,weatherlink.com 1.10,2013-09-29 07:49:00,
2013-09-29 04:04:00,82.7,78.0,29.82,ESE,115,1.0,10.0,86,0.00,,,0.00,weatherlink.com 1.10,2013-09-29 08:04:00,
2013-09-29 04:19:00,82.7,78.0,29.82,ESE,111,8.0,12.0,86,0.00,,,0.00,weatherlink.com 1.10,2013-09-29 08:19:00,
2013-09-29 04:34:00,82.5,78.0,29.82,ESE,111,5.0,10.0,86,0.00,,,0.00,weatherlink.com 1.10,2013-09-29 08:34:00,
2013-09-29 04:49:00,82.5,78.0,29.83,East,92,6.0,8.0,86,0.00,,,0.00,weatherlink.com 1.10,2013-09-29 08:49:00,
2013-09-29 05:04:00,82.4,78.0,29.83,East,80,5.0,11.0,86,0.00,,,0.00,weatherlink.com 1.10,2013-09-29 09:04:00,
2013-09-29 05:19:00,82.5,78.0,29.83,East,96,6.0,8.0,85,0.00,,,0.00,weatherlink.com 1.10,2013-09-29 09:19:00,
2013-09-29 05:34:00,82.4,78.0,29.84,ESE,117,2.0,10.0,86,0.00,,,0.00,weatherlink.com 1.10,2013-09-29 09:34:00,
2013-09-29 05:49:00,82.4,78.0,29.84,East,87,3.0,8.0,86,0.00,,,0.00,weatherlink.com 1.10,2013-09-29 09:49:00,
2013-09-29 06:04:00,82.4,78.0,29.85,ESE,115,2.0,8.0,86,0.00,,,0.00,weatherlink.com 1.10,2013-09-29 10:04:00,
2013-09-29 06:19:00,82.7,78.0,29.86,ESE,122,3.0,9.0,86,0.00,,,0.00,weatherlink.com 1.10,2013-09-29 10:19:00,
2013-09-29 06:34:00,82.6,78.0,29.86,SE,125,1.0,8.0,86,0.00,,,0.00,weatherlink.com 1.10,2013-09-29 10:34:00,
2013-09-29 06:49:00,82.9,78.0,29.87,ESE,112,5.0,9.0,86,0.00,,,0.00,weatherlink.com 1.10,2013-09-29 10:49:00,
2013-09-29 07:04:00,83.5,79.0,29.88,ESE,116,4.0,10.0,85,0.00,,,0.00,weatherlink.com 1.10,2013-09-29 11:04:00,
2013-09-29 07:20:00,84.1,79.0,29.88,ESE,119,5.0,8.0,84,0.00,,,0.00,weatherlink.com 1.10,2013-09-29 11:20:00,
2013-09-29 07:35:00,84.8,79.0,29.89,SE,133,3.0,12.0,82,0.00,,,0.00,weatherlink.com 1.10,2013-09-29 11:35:00,
2013-09-29 07:50:00,85.6,79.0,29.89,SE,132,5.0,13.0,81,0.00,,,0.00,weatherlink.com 1.10,2013-09-29 11:50:00,
2013-09-29 08:05:00,86.4,80.0,29.89,ESE,107,7.0,14.0,80,0.00,,,0.00,weatherlink.com 1.10,2013-09-29 12:05:00,
2013-09-29 08:20:00,86.6,80.0,29.89,ESE,106,5.0,13.0,80,0.00,,,0.00,weatherlink.com 1.10,2013-09-29 12:20:00,
2013-09-29 08:35:00,87.4,80.0,29.89,ESE,119,3.0,14.0,78,0.00,,,0.00,weatherlink.com 1.10,2013-09-29 12:35:00,
2013-09-29 08:50:00,88.2,80.0,29.89,SE,137,5.0,12.0,76,0.00,,,0.00,weatherlink.com 1.10,2013-09-29 12:50:00,
2013-09-29 09:05:00,88.2,80.0,29.89,SE,144,2.0,15.0,77,0.00,,,0.00,weatherlink.com 1.10,2013-09-29 13:05:00,
2013-09-29 09:20:00,88.2,80.0,29.90,SE,131,7.0,14.0,77,0.00,,,0.00,weatherlink.com 1.10,2013-09-29 13:20:00,
2013-09-29 09:35:00,88.5,80.0,29.90,SE,136,4.0,16.0,75,0.00,,,0.00,weatherlink.com 1.10,2013-09-29 13:35:00,
2013-09-29 09:50:00,90.1,80.0,29.90,SE,131,6.0,15.0,72,0.00,,,0.00,weatherlink.com 1.10,2013-09-29 13:50:00,
2013-09-29 10:05:00,90.2,80.0,29.90,ESE,115,12.0,13.0,72,0.00,,,0.00,weatherlink.com 1.10,2013-09-29 14:05:00,
2013-09-29 10:20:00,90.2,80.0,29.90,ENE,78,12.0,15.0,71,0.00,,,0.00,weatherlink.com 1.10,2013-09-29 14:20:00,
2013-09-29 10:35:00,90.5,80.0,29.90,SSW,192,3.0,13.0,72,0.00,,,0.00,weatherlink.com 1.10,2013-09-29 14:35:00,
2013-09-29 10:50:00,89.8,80.0,29.90,ENE,74,5.0,16.0,73,0.00,,,0.00,weatherlink.com 1.10,2013-09-29 14:50:00,
2013-09-29 11:05:00,90.1,81.0,29.89,ESE,123,2.0,13.0,74,0.00,,,0.00,weatherlink.com 1.10,2013-09-29 15:05:00,
2013-09-29 11:20:00,90.4,81.0,29.88,South,183,8.0,14.0,73,0.00,,,0.00,weatherlink.com 1.10,2013-09-29 15:20:00,
2013-09-29 11:35:00,90.1,81.0,29.88,ESE,105,8.0,17.0,74,0.00,,,0.00,weatherlink.com 1.10,2013-09-29 15:35:00,
2013-09-29 11:50:00,90.2,81.0,29.88,ESE,105,3.0,13.0,73,0.00,,,0.00,weatherlink.com 1.10,2013-09-29 15:50:00,
2013-09-29 12:05:00,90.4,80.0,29.87,ESE,119,4.0,16.0,72,0.00,,,0.00,weatherlink.com 1.10,2013-09-29 16:05:00,
2013-09-29 12:20:00,91.0,80.0,29.87,ESE,121,4.0,19.0,71,0.00,,,0.00,weatherlink.com 1.10,2013-09-29 16:20:00,
2013-09-29 12:35:00,91.0,80.0,29.86,SE,144,4.0,16.0,69,0.00,,,0.00,weatherlink.com 1.10,2013-09-29 16:35:00,
2013-09-29 12:50:00,90.5,79.0,29.85,ESE,119,5.0,15.0,68,0.00,,,0.00,weatherlink.com 1.10,2013-09-29 16:50:00,
2013-09-29 13:05:00,91.1,79.0,29.84,South,171,5.0,15.0,68,0.00,,,0.00,weatherlink.com 1.10,2013-09-29 17:05:00,
2013-09-29 13:20:00,92.0,79.0,29.83,SE,142,4.0,15.0,66,0.00,,,0.00,weatherlink.com 1.10,2013-09-29 17:20:00,
2013-09-29 13:35:00,92.3,78.0,29.82,ESE,112,2.0,16.0,64,0.00,,,0.00,weatherlink.com 1.10,2013-09-29 17:35:00,
2013-09-29 13:50:00,91.9,79.0,29.82,SE,136,13.0,15.0,66,0.00,,,0.00,weatherlink.com 1.10,2013-09-29 17:50:00,
2013-09-29 14:05:00,92.1,79.0,29.81,SE,138,9.0,13.0,65,0.00,,,0.00,weatherlink.com 1.10,2013-09-29 18:05:00,
2013-09-29 14:20:00,91.0,79.0,29.80,ESE,106,4.0,14.0,68,0.00,,,0.00,weatherlink.com 1.10,2013-09-29 18:20:00,
2013-09-29 14:35:00,91.3,78.0,29.80,ENE,75,7.0,13.0,66,0.00,,,0.00,weatherlink.com 1.10,2013-09-29 18:35:00,
2013-09-29 14:50:00,90.6,79.0,29.79,ESE,103,10.0,21.0,69,0.00,,,0.00,weatherlink.com 1.10,2013-09-29 18:50:00,
2013-09-29 15:05:00,90.3,79.0,29.79,ENE,61,4.0,14.0,69,0.00,,,0.00,weatherlink.com 1.10,2013-09-29 19:05:00,
2013-09-29 15:20:00,91.2,79.0,29.78,SE,144,2.0,15.0,68,0.00,,,0.00,weatherlink.com 1.10,2013-09-29 19:20:00,
2013-09-29 15:35:00,89.9,79.0,29.78,ESE,106,5.0,13.0,71,0.00,,,0.00,weatherlink.com 1.10,2013-09-29 19:35:00,
2013-09-29 15:50:00,89.5,80.0,29.78,ESE,120,9.0,12.0,73,0.00,,,0.00,weatherlink.com 1.10,2013-09-29 19:50:00,
2013-09-29 16:05:00,89.5,80.0,29.78,SE,140,4.0,13.0,73,0.00,,,0.00,weatherlink.com 1.10,2013-09-29 20:05:00,
2013-09-29 16:20:00,89.3,80.0,29.77,ESE,103,7.0,15.0,73,0.00,,,0.00,weatherlink.com 1.10,2013-09-29 20:20:00,
2013-09-29 16:35:00,89.2,80.0,29.77,SSE,148,9.0,10.0,75,0.00,,,0.00,weatherlink.com 1.10,2013-09-29 20:35:00,
2013-09-29 16:50:00,88.6,80.0,29.78,SE,135,5.0,13.0,75,0.00,,,0.00,weatherlink.com 1.10,2013-09-29 20:50:00,
2013-09-29 17:05:00,88.1,80.0,29.77,East,95,5.0,11.0,76,0.00,,,0.00,weatherlink.com 1.10,2013-09-29 21:05:00,
2013-09-29 17:20:00,87.2,80.0,29.78,East,81,6.0,13.0,78,0.00,,,0.00,weatherlink.com 1.10,2013-09-29 21:20:00,
2013-09-29 17:35:00,86.7,80.0,29.79,East,82,8.0,11.0,80,0.00,,,0.00,weatherlink.com 1.10,2013-09-29 21:35:00,
2013-09-29 17:51:00,86.1,80.0,29.79,ESE,112,3.0,12.0,81,0.00,,,0.00,weatherlink.com 1.10,2013-09-29 21:51:00,
2013-09-29 18:05:00,85.5,79.0,29.79,East,88,2.0,15.0,81,0.00,,,0.00,weatherlink.com 1.10,2013-09-29 22:05:00,
2013-09-29 18:20:00,85.1,79.0,29.80,East,101,2.0,10.0,81,0.00,,,0.00,weatherlink.com 1.10,2013-09-29 22:20:00,
2013-09-29 18:35:00,84.8,78.0,29.80,East,92,1.0,12.0,81,0.00,,,0.00,weatherlink.com 1.10,2013-09-29 22:35:00,
2013-09-29 18:50:00,84.6,79.0,29.80,ESE,113,7.0,11.0,82,0.00,,,0.00,weatherlink.com 1.10,2013-09-29 22:50:00,
2013-09-29 19:05:00,84.4,79.0,29.80,ESE,109,9.0,13.0,83,0.00,,,0.00,weatherlink.com 1.10,2013-09-29 23:05:00,
2013-09-29 19:20:00,84.2,79.0,29.81,ESE,106,3.0,10.0,83,0.00,,,0.00,weatherlink.com 1.10,2013-09-29 23:20:00,
2013-09-29 19:35:00,84.1,79.0,29.82,ESE,104,3.0,11.0,84,0.00,,,0.00,weatherlink.com 1.10,2013-09-29 23:35:00,
2013-09-29 19:51:00,84.0,79.0,29.82,ENE,70,8.0,9.0,84,0.00,,,0.00,weatherlink.com 1.10,2013-09-29 23:51:00,
2013-09-29 20:06:00,83.9,79.0,29.83,NE,53,8.0,10.0,84,0.00,,,0.00,weatherlink.com 1.10,2013-09-30 00:06:00,
2013-09-29 20:21:00,83.9,79.0,29.84,East,85,5.0,8.0,85,0.00,,,0.00,weatherlink.com 1.10,2013-09-30 00:21:00,
2013-09-29 20:36:00,83.7,79.0,29.84,ESE,111,7.0,9.0,85,0.00,,,0.00,weatherlink.com 1.10,2013-09-30 00:36:00,
2013-09-29 20:51:00,83.6,79.0,29.85,East,96,6.0,8.0,85,0.00,,,0.00,weatherlink.com 1.10,2013-09-30 00:51:00,
2013-09-29 21:06:00,83.6,78.0,29.86,ESE,102,2.0,10.0,84,0.00,,,0.00,weatherlink.com 1.10,2013-09-30 01:06:00,
2013-09-29 21:21:00,83.7,78.0,29.86,ESE,111,4.0,10.0,84,0.00,,,0.00,weatherlink.com 1.10,2013-09-30 01:21:00,
2013-09-29 21:36:00,83.6,78.0,29.87,ENE,72,4.0,10.0,84,0.00,,,0.00,weatherlink.com 1.10,2013-09-30 01:36:00,
2013-09-29 21:51:00,83.6,78.0,29.88,ESE,113,7.0,10.0,84,0.00,,,0.00,weatherlink.com 1.10,2013-09-30 01:51:00,
2013-09-29 22:06:00,83.6,78.0,29.88,East,93,8.0,12.0,84,0.00,,,0.00,weatherlink.com 1.10,2013-09-30 02:06:00,
2013-09-29 22:21:00,83.6,78.0,29.88,ESE,113,3.0,13.0,84,0.00,,,0.00,weatherlink.com 1.10,2013-09-30 02:21:00,
2013-09-29 22:36:00,83.4,78.0,29.88,NE,47,8.0,11.0,83,0.00,,,0.00,weatherlink.com 1.10,2013-09-30 02:36:00,
2013-09-29 22:51:00,83.5,78.0,29.88,ESE,107,5.0,11.0,83,0.00,,,0.00,weatherlink.com 1.10,2013-09-30 02:51:00,
2013-09-29 23:06:00,83.6,78.0,29.88,ESE,121,7.0,12.0,83,0.00,,,0.00,weatherlink.com 1.10,2013-09-30 03:06:00,
2013-09-29 23:21:00,83.5,78.0,29.88,SE,126,3.0,11.0,83,0.00,,,0.00,weatherlink.com 1.10,2013-09-30 03:21:00,
2013-09-29 23:36:00,83.4,78.0,29.88,ESE,119,3.0,9.0,83,0.00,,,0.00,weatherlink.com 1.10,2013-09-30 03:36:00,
2013-09-29 23:51:00,83.3,78.0,29.88,ESE,113,2.0,9.0,84,0.00,,,0.00,weatherlink.com 1.10,2013-09-30 03:51:00,